Weather History for Pellston, MI

Change the Weather History Date:

Sunday, June 1, 2014

  Actual Average Record
Temperature  
Mean Temperature 74 °F -  
Max Temperature 89 °F 69 °F 89 °F (2014)
Min Temperature 61 °F 43 °F 27 °F (1966)
Cooling Degree Days 10    
Growing Degree Days 24 (Base 50)    
Moisture  
Dew Point 51 °F    
Average Humidity 46    
Maximum Humidity 84    
Minimum Humidity 30    
Precipitation  
Precipitation 0.00 in - - ()
Sea Level Pressure  
Sea Level Pressure 30.00 in    
Wind  
Wind Speed 8 mph (SSW)    
Max Wind Speed 15 mph    
Max Gust Speed 22 mph    
Visibility 10 miles    
Events      
Averages and records for this station are not official NWS values.
T = Trace of Precipitation, MM = Missing Value Source: NWS Daily Summary

Daily Weather History Graph

Daily Weather History Graph

Search for Another Location

Airport:

Trip Planner

Search our weather history database for the weather conditions in past years. The results will help you decide how hot, cold, wet, or windy it might be!

Date:

Astronomy

Jun. 01, 2014 Rise Set
Actual Time 5:53 AM EDT 9:20 PM EDT
Civil Twilight 5:16 AM EDT 9:57 PM EDT
Nautical Twilight 4:28 AM EDT 10:46 PM EDT
Astronomical Twilight 3:25 AM EDT 11:49 PM EDT
Moon 9:30 AM EDT (6/1) No Moon Set
Length of Visible Light 16h 41m
Length of Day
15h 27m
Waxing Crescent, 14% of the Moon is Illuminated
Jun 1
Waxing Crescent
Jun 5
First Quarter
Jun 13
Full
Jun 19
Last Quarter
Jun 27
New

Hourly Weather History & Observations

Time (EDT) Temp. Heat Index Dew Point Humidity Pressure Visibility Wind Dir Wind Speed Gust Speed Precip Events Conditions
12:54 AM 64.9 °F - 46.0 °F 50% 30.12 in 10.0 mi SSE 5.8 mph - N/A   Clear
1:54 AM 61.0 °F - 46.0 °F 58% 30.11 in 10.0 mi SE 5.8 mph - N/A   Clear
2:54 AM 63.0 °F - 46.9 °F 56% 30.11 in 10.0 mi SSE 5.8 mph - N/A   Clear
4:54 AM 64.9 °F - 50.0 °F 58% 30.08 in 10.0 mi SSE 8.1 mph - N/A   Clear
5:54 AM 62.1 °F - 50.0 °F 65% 30.08 in 10.0 mi SSE 8.1 mph - N/A   Clear
6:54 AM 66.0 °F - 46.0 °F 48% 30.07 in 10.0 mi SSE 5.8 mph - N/A   Clear
7:54 AM 66.9 °F - 45.0 °F 45% 30.07 in 10.0 mi SSE 5.8 mph - N/A   Clear
8:54 AM 72.0 °F - 46.0 °F 40% 30.06 in 10.0 mi SSE 6.9 mph - N/A   Clear
10:54 AM 79.0 °F - 48.9 °F 35% 30.04 in 10.0 mi SSW 15.0 mph 19.6 mph N/A   Clear
11:54 AM 82.9 °F - 50.0 °F 32% 30.02 in 10.0 mi South 15.0 mph 20.7 mph N/A   Clear
12:54 PM 81.0 °F - 51.1 °F 35% 30.02 in 10.0 mi SSW 11.5 mph 18.4 mph N/A   Clear
1:54 PM 80.1 °F - 52.0 °F 38% 30.01 in 10.0 mi SW 6.9 mph 18.4 mph N/A   Partly Cloudy
2:54 PM 84.0 °F 82.5 °F 53.1 °F 34% 29.98 in 10.0 mi SW 10.4 mph - N/A   Clear
3:54 PM 87.1 °F 84.9 °F 53.1 °F 31% 29.94 in 10.0 mi WSW 12.7 mph 18.4 mph N/A   Clear
4:54 PM 87.1 °F 84.9 °F 53.1 °F 31% 29.91 in 10.0 mi SW 9.2 mph 20.7 mph N/A   Clear
5:54 PM 88.0 °F 85.7 °F 53.1 °F 30% 29.89 in 10.0 mi WSW 12.7 mph 17.3 mph N/A   Clear
6:54 PM 84.9 °F - 51.1 °F 31% 29.89 in 10.0 mi West 9.2 mph - N/A   Partly Cloudy
7:54 PM 75.9 °F - 52.0 °F 43% 29.89 in 10.0 mi NNE 8.1 mph - N/A   Overcast
8:54 PM 72.0 °F - 53.1 °F 51% 29.91 in 10.0 mi West 6.9 mph - N/A   Overcast
9:54 PM 69.1 °F - 59.0 °F 70% 29.91 in 10.0 mi WSW 11.5 mph 21.9 mph N/A   Overcast
11:54 PM 66.9 °F - 62.1 °F 84% 29.90 in 10.0 mi Calm Calm - N/A   Mostly Cloudy